Terug naar catalogus

SITRO-AIS-37

ActiefNavigatieSSO
NORAD 61780·PAYLOAD·🇷🇺 Russia
Deze satellietnaam is nog niet bevestigd door officiële bronnen.

Gelanceerd Nov 4, 2024 vanaf Vostochny Cosmodrome

Loading…

Volgende Passages (komende 24 uur)

TLE

VersSource: Space-Track

Epoch: Sep 14, 2026, 22:29 UTC

1 61780U 24199AX  26257.93698754  .00093273  00000-0  79917-3 0  9990
2 61780  97.2722 136.8824 0003033 336.0194  24.0926 15.69125795148466

Volg SITRO-AIS-37 in realtime met AllMySat

Download on the App Store